Location: Cork
(51.8990°N, 8.4960°W)
Time: 16:42:58
(UTC+01:00)

Iridium 66 - Visible Passes

Search period start: 22 August 2014 00:00
Search period end: 01 September 2014 00:00
Orbit: 776 x 779 km, 86.4° (Epoch: 21 August)

Date Brightness Start Highest point End Pass type
(mag) Time Alt. Az. Time Alt. Az. Time Alt. Az.
22 Aug 7.4 00:25:10 20° WSW 00:27:53 32° WNW 00:32:34 10° NNW visible
22 Aug 7.2 22:11:08 18° ESE 22:13:44 26° E 22:17:59 10° NNE visible
22 Aug 6.6 23:51:36 28° SW 23:54:09 53° W 23:59:16 10° N visible
23 Aug 7.7 21:37:33 10° ESE 21:40:33 16° ENE 21:43:39 10° NE visible
23 Aug 6.0 23:18:00 32° S 23:20:32 87° W 23:25:48 10° N visible
24 Aug 8.5 00:59:04 10° WSW 01:02:07 16° WNW 01:05:11 10° NNW visible
24 Aug 6.1 22:44:24 28° SSE 22:47:03 57° E 22:52:10 10° N visible
25 Aug 7.9 00:24:52 14° WSW 00:28:10 24° WNW 00:32:25 10° NNW visible
25 Aug 6.8 22:10:47 20° SE 22:13:41 35° E 22:18:22 10° NNE visible
25 Aug 7.2 23:51:14 20° SW 23:54:21 39° WNW 23:59:15 10° N visible
26 Aug 7.4 21:37:09 12° ESE 21:40:25 22° ENE 21:44:18 10° NNE visible
26 Aug 6.3 23:17:36 25° SSW 23:20:40 64° W 23:25:52 10° N visible
27 Aug 8.7 01:00:48 10° W 01:02:32 12° WNW 01:04:16 10° NW visible
27 Aug 7.9 21:04:55 10° E 21:07:17 13° ENE 21:09:39 10° NE visible
27 Aug 5.9 22:43:56 24° S 22:47:06 78° E 22:52:20 10° N visible
28 Aug 8.3 00:24:54 10° WSW 00:28:30 19° WNW 00:32:07 10° NNW visible
28 Aug 6.3 22:10:16 19° SSE 22:13:40 47° E 22:18:39 10° NNE visible
28 Aug 7.7 23:50:43 13° SW 23:54:36 29° WNW 23:59:09 10° NNW visible
29 Aug 7.0 21:36:33 13° SE 21:40:20 29° E 21:44:45 10° NNE visible
29 Aug 6.9 23:17:00 17° SSW 23:20:50 47° W 23:25:54 10° N visible
30 Aug 7.5 21:03:44 10° ESE 21:07:07 18° ENE 21:10:32 10° NE visible
30 Aug 6.1 22:43:16 18° S 22:47:12 79° W 22:52:27 10° N visible
31 Aug 8.6 00:26:11 10° W 00:28:53 14° WNW 00:31:35 10° NNW visible
31 Aug 6.0 22:09:30 16° SSE 22:13:41 64° E 22:18:51 10° N visible
31 Aug 8.2 23:50:52 10° WSW 23:54:54 22° WNW 23:58:57 10° NNW visible
